Location: Brachbach
(49.1847°N, 9.7240°E)
Time: 12:38:07
(UTC+00:00)

CZ-2C R/B - Pass Details

Date: 06 August 2024
Orbit: 782 x 869 km, 98.3° (Epoch: 15 September)

Event Time Altitude Azimuth Distance (km) Brightness Sun altitude
Exits shadow 00:24:52 20° 129° (SE) 1,902 4.3 -23.0°
Maximum altitude 00:28:25 44° 67° (ENE) 1,167 3.6 -22.8°
Drops below altitude 10° 00:33:36 10° 357° (N) 2,475 6.1 -22.6°
Sets 00:36:03 0° 351° (N) 3,401 6.9 -22.4°
